SES-5 (EGNOS/PRN 136)

Last updated on Thu Jul 03 2025 00:03:25 GMT+0000 (Coordinated Universal Time)

1 38652U 12036A 25183.42266964 .00000040 00000+0 00000+0 0 9996 2 38652 0.0288 353.0107 0002011 97.8740 346.9462 1.00269782 40971
UTC large
Height (km)
Speed (km/s)
/
Latitude / Longitude
Inclination (degrees)
Orbital Period (minutes)
Azimuth
Elevation
Range (km)
Doppler Factor

Next 0 passes for location: London (51.5072 / 0.1276)

Sorry there are no passes over London.